Willow Wells

2020-09-27 18:00:00

  • imperial
Date Time Air Temperature Relative Humidity Wind Speed Wind Dir. Precipitation Solar Radiation Soil Temperature Soil Temperature Soil Temperature Soil Temperature Soil Temperature
5cm 10cm 20cm 50cm 100cm
US/Mountain F % MPH deg in MJ/m^2 F F F F F
max min avg max min max avg avg
2020-09-26 20:00:00 -147.8 -147.8 -147.8 -99.9 -99.9 6.5 4.2 270.0 -99.90 0.0000000 89.4 90.7 81.1 78.6 78.3
2020-09-26 21:00:00 -147.8 -147.8 -147.8 -99.9 -99.9 5.0 1.0 267.0 -99.90 0.0000000 85.3 87.3 81.3 78.8 78.3
2020-09-26 22:00:00 -147.8 -147.8 -147.8 -99.9 -99.9 3.3 1.1 313.0 -99.90 0.0000000 81.5 84.2 81.3 78.8 78.3
2020-09-26 23:00:00 -147.8 -147.8 -147.8 -99.9 -99.9 2.4 1.0 333.0 -99.90 0.0000000 78.4 81.5 81.1 79.0 78.3
2020-09-27 00:00:00 -147.8 -147.8 -147.8 -99.9 -99.9 3.8 1.8 322.0 -99.90 0.0000000 76.1 79.2 80.8 79.0 78.3
2020-09-27 01:00:00 -147.8 -147.8 -147.8 -99.9 -99.9 4.7 1.5 300.0 -99.90 0.0000000 74.1 77.2 80.4 79.2 78.3
2020-09-27 02:00:00 -147.8 -147.8 -147.8 -99.9 -99.9 4.3 2.2 330.0 -99.90 0.0000360 72.1 75.4 79.9 79.2 78.3
2020-09-27 03:00:00 -147.8 -147.8 -147.8 -99.9 -99.9 3.2 1.3 342.0 -99.90 0.0000360 70.3 73.8 79.3 79.3 78.3
2020-09-27 04:00:00 -147.8 -147.8 -147.8 -99.9 -99.9 4.6 2.7 310.0 -99.90 0.0000000 68.9 72.3 79.0 79.3 78.3
2020-09-27 05:00:00 -147.8 -147.8 -147.8 -99.9 -99.9 4.6 2.0 310.0 -99.90 0.0000720 68.0 71.2 78.4 79.3 78.3
2020-09-27 06:00:00 -147.8 -147.8 -147.8 -99.9 -99.9 11.1 5.1 312.0 -99.90 0.0000720 66.9 70.2 77.9 79.3 78.3
2020-09-27 07:00:00 -147.8 -147.8 -147.8 -99.9 -99.9 9.9 7.1 300.0 -99.90 0.0122400 66.9 69.6 77.4 79.2 78.3
2020-09-27 08:00:00 -147.8 -147.8 -147.8 -99.9 -99.9 11.1 7.9 305.0 -99.90 0.3628800 67.5 69.3 76.8 79.2 78.3
2020-09-27 09:00:00 -147.8 -147.8 -147.8 -99.9 -99.9 15.3 9.7 313.0 -99.90 1.0980000 69.3 70.2 76.5 79.0 78.3
2020-09-27 10:00:00 -147.8 -147.8 -147.8 -99.9 -99.9 19.4 12.9 313.0 -99.90 1.8367200 72.0 72.1 76.1 79.0 78.3
2020-09-27 11:00:00 -147.8 -147.8 -147.8 -99.9 -99.9 20.0 13.0 317.0 -99.90 2.4768000 76.1 76.1 75.7 78.8 78.3
2020-09-27 12:00:00 -147.8 -147.8 -147.8 -99.9 -99.9 19.8 11.4 326.0 -99.90 2.8656000 82.8 81.9 75.7 78.8 78.3
2020-09-27 13:00:00 -147.8 -147.8 -147.8 -99.9 -99.9 19.3 11.9 324.0 -99.90 3.0600000 90.3 88.0 75.9 78.8 78.3
2020-09-27 14:00:00 -147.8 -147.8 -147.8 -99.9 -99.9 23.7 14.1 317.0 -99.90 3.0096000 96.3 93.2 76.3 78.6 78.3
2020-09-27 15:00:00 -147.8 -147.8 -147.8 -99.9 -99.9 21.3 11.4 314.0 -99.90 2.6820000 100.9 96.8 77.2 78.6 78.3
2020-09-27 16:00:00 -147.8 -147.8 -147.8 -99.9 -99.9 20.6 10.7 301.0 -99.90 2.1834000 103.1 98.4 77.9 78.4 78.3
2020-09-27 17:00:00 -147.8 -147.8 -147.8 -99.9 -99.9 17.2 9.8 306.0 -99.90 1.5192000 102.2 97.9 78.8 78.4 78.3
2020-09-27 18:00:00 -147.8 -147.8 -147.8 -99.9 -99.9 22.5 12.6 21.0 -99.90 0.7236000 97.9 95.7 79.7 78.4 78.3

Data is presented as is, with no certification of correctness. DO NOT USE IN LEGAL PROCEEDINGS.